Terminal Aerodrome Forecast
Issued by NWS Jackson, MS

Home | Current Version | Previous Version | Text Only | Print | Product List | Glossary On
Versions: 1 2 3 4 5 6 7 8 9 10 11 12
000
FTUS44 KMEG 060520
TAFTUP
TAF
KTUP 060520Z 0606/0706 15004KT P6SM SKC
     FM061500 17009KT P6SM SCT060 SCT250
     FM070100 15003KT P6SM FEW250=

USA.gov is the U.S. government's official web portal to all federal, state and local government web resources and services.